This is the latest recevied weather packets stored in our database for station/object LRBC. If no packets are shown the sender has not sent any weather packets the latest 10 day(s).
| Time | Temp. | Humidity | Pressure | Rain* | Wind** | Luminosity | Snow |
|---|---|---|---|---|---|---|---|
| 1777608228 | 2.78° C | 70% | 1026 hPa | - | - | - | - |
| 1777607327 | 2.78° C | 65% | 1026 hPa | - | - | - | - |
| 1777606427 | 2.78° C | 65% | 1026 hPa | - | - | - | - |
| 1777605527 | 2.78° C | 65% | 1026 hPa | - | - | - | - |
| 1777604628 | 2.78° C | 65% | 1026 hPa | - | - | - | - |
| 1777603725 | 2.78° C | 65% | 1026 hPa | - | - | - | - |
| 1777602827 | 2.78° C | 65% | 1026 hPa | - | - | - | - |
| 1777601927 | 2.78° C | 65% | 1026 hPa | - | - | - | - |
| 1777601027 | 2.78° C | 65% | 1026 hPa | - | - | - | - |
| 1777586627 | 0° C | 69% | 1026 hPa | - | - | - | - |
| 1777585728 | 1.11° C | 70% | 1026 hPa | - | - | - | - |
| 1777583928 | 2.22° C | 65% | 1026 hPa | - | - | - | - |
| 1777581227 | 1.11° C | 70% | 1026 hPa | - | - | - | - |
| 1777579428 | 2.22° C | 65% | 1026 hPa | - | - | - | - |
| 1777577648 | 2.78° C | 60% | 1026 hPa | - | - | - | - |
| 1777574925 | 2.78° C | 60% | 1025 hPa | - | - | - | - |
| 1777574027 | 2.78° C | 60% | 1025 hPa | - | - | - | - |
| 1777573128 | 3.89° C | 61% | 1025 hPa | - | - | - | - |
| 1777571327 | 7.22° C | 49% | 1025 hPa | - | - | - | - |
| 1777570428 | 7.22° C | 49% | 1025 hPa | - | - | - | - |
| 1777566827 | 11.11° C | 35% | 1024 hPa | - | - | - | - |
| 1777565928 | 11.11° C | 35% | 1024 hPa | - | - | - | - |
| 1777565027 | 11.11° C | 35% | 1024 hPa | - | - | - | - |
| 1777564128 | 10° C | 40% | 1024 hPa | - | - | - | - |
| 1777563228 | 10° C | 40% | 1024 hPa | - | - | - | - |
* Rain since midnight (hover to see other rain measurements)
** Current wind speed in m/s (hover to see current wind gust speed)